Location: Kervinic
(48.4279°N, 4.7373°W)
Time: 11:52:10
(UTC+00:00)

Cosmos-2242 - Pass Details

Date: 09 April 2020
Orbit: 590 x 618 km, 82.5° (Epoch: 02 June)

Event Time Altitude Azimuth Distance (km) Brightness Sun altitude
Exits shadow 21:45:28 75° 37° (NE) 635 3.0 -24.1°
Drops below altitude 10° 21:49:33 10° 11° (N) 1,979 6.1 -24.6°
Sets 21:51:47 0° 11° (N) 2,893 7.0 -24.8°
